RH
70 80 82 94 95 93 89 92 90 92 89 91 91 93 95 95 95 97 96 96 89 86 84 81 81 82 86 94 98 98 98 99 99 99 99 97 99 98 98 98 98 98 98 98
64 67 75 88 92 89 90 94 95 95 92 93 95 95 97 98 95 95 92 86 81 79 77 74 73 73 75 81 88 97 98 98 98 98 98 98 98 98 98 98 98 98 97 97
65 56 61 83 96 96 95 96 97 97 97 98 97 98 95 93 90 87 81 79 80 80 82 83 82 81 81 83 85 88 93 96 98 98 98 98 98 98 98 98 97 97 96 93
66 50 80 89 92 95 96 97 97 97 97 94 96 96 95 97 97 94 90 89 88 86 85 87 88 91 93 93 93 93 94 95 96 97 98 97 97 97 97 97 97 94 89 86
67 71 72 70 90 96 96 97 97 97 97 98 98 96 98 97 97 97 97 96 96 97 97 97 97 97 97 97 97 98 98 98 98 98 98 98 97 97 97 95 91 88 85 82
65 71 76 72 77 90 95 96 97 97 97 97 96 93 95 95 96 96 96 96 96 97 97 97 97 97 97 97 97 97 97 97 97 97 97 97 94 90 86 82 80 80 81 80
69 72 73 70 72 82 83 92 96 97 97 97 97 96 96 96 96 97 97 97 97 97 97 97 97 97 97 97 97 97 97 97 97 94 90 87 84 81 78 76 76 75 74 73
65 66 73 72 68 81 89 92 94 95 95 97 97 97 98 98 98 97 95 96 96 97 98 97 97 97 97 97 97 97 96 94 91 89 86 83 80 76 74 74 75 75 76 75
64 60 62 71 76 86 93 93 94 95 95 94 95 93 93 95 96 95 96 94 93 92 93 93 93 93 94 94 93 91 91 90 88 85 83 80 78 76 73 74 74 75 75 74
60 58 60 57 62 66 77 81 86 90 94 96 94 92 91 90 91 90 90 90 91 88 88 85 83 83 84 85 83 82 81 79 78 78 77 76 74 71 66 65 66 67 66 63
53 49 52 55 54 55 58 65 72 76 86 89 91 93 93 91 90 86 83 81 81 82 85 85 86 85 81 78 73 71 67 65 65 65 63 63 63 62 61 60 59 59 59 57
47 39 43 45 47 47 47 46 53 62 65 76 83 85 89 92 90 86 82 84 84 82 81 81 80 76 72 69 66 63 62 61 62 61 60 59 60 59 60 59 57 57 56 54
41 39 41 38 41 46 41 39 38 41 50 56 66 74 78 79 80 81 82 82 81 78 77 76 75 76 71 69 66 64 60 58 56 56 56 55 56 55 55 57 57 57 57 56
57 53 47 42 39 39 39 41 43 40 38 39 45 52 61 69 72 73 73 74 74 74 74 73 73 74 74 71 67 63 60 59 58 57 55 54 51 51 51 51 52 53 51 49
67 70 66 63 60 55 49 44 41 38 39 46 51 48 46 50 57 63 68 69 69 67 67 68 69 71 72 71 68 65 62 60 57 55 54 52 49 44 41 41 39 38 39 44
67 75 80 81 80 75 72 68 64 60 56 53 46 41 50 59 56 53 58 63 66 68 70 69 70 72 70 69 69 67 66 65 62 60 57 56 48 39 33 30 32 36 41 41
70 75 80 84 86 87 87 86 82 81 79 75 69 62 57 51 39 52 63 60 55 61 68 69 73 75 72 71 72 71 69 68 67 66 65 61 45 34 30 31 34 37 37 38
68 74 78 81 86 89 91 92 93 94 93 91 86 80 75 70 65 60 45 46 59 66 64 64 71 72 73 75 74 73 71 71 69 70 70 65 42 31 34 37 38 39 39 40
74 80 83 84 85 86 89 91 92 92 92 90 89 86 83 78 74 71 69 63 51 50 60 67 70 72 74 76 76 75 75 73 71 73 66 54 45 44 44 43 42 43 44 45
73 79 79 78 82 88 88 88 88 89 90 89 86 85 85 85 84 80 74 70 71 67 49 59 64 66 70 72 72 71 70 70 72 70 66 63 59 55 53 52 51 50 49 48
76 76 77 77 82 83 86 88 88 88 87 88 90 88 85 85 86 84 82 76 78 75 75 63 55 60 65 69 71 71 75 77 76 75 74 72 69 65 61 58 55 52 50 48
72 76 81 83 83 86 87 92 93 92 94 92 89 90 88 85 84 86 86 82 80 76 77 81 80 69 65 68 68 69 73 76 76 76 74 72 68 65 62 60 59 59 59 61
75 83 88 92 93 94 96 96 93 89 85 87 91 92 90 91 86 84 86 86 84 78 72 78 87 88 83 80 74 71 70 71 71 69 67 67 67 69 69 68 69 72 74 74
85 89 94 97 96 97 97 93 89 87 84 83 85 92 94 94 90 86 85 87 87 84 77 70 74 83 85 81 79 78 78 76 76 76 76 79 82 84 85 84 81 78 75 74
96 97 98 98 98 97 93 91 84 78 78 80 83 87 95 96 94 92 89 85 84 82 78 72 70 75 78 82 84 80 80 81 84 87 89 90 89 88 85 81 80 79 77 75
96 97 98 98 98 97 94 90 87 84 78 72 76 83 89 94 94 91 90 87 85 84 80 78 76 76 79 81 84 85 84 83 84 86 86 86 86 85 85 84 82 81 79 78
98 98 98 98 98 96 93 87 83 82 82 81 73 73 80 89 93 91 89 86 85 87 88 84 83 88 87 84 83 84 85 86 85 85 85 86 86 85 85 84 83 83 81 76